Simultaneous Nadir Overpasses (SNOs) Predictions

Prediction of SNOs between GOES-17 and AQUA Satellite Orbit:

Table of predicted SNOs for the next 14.0 days since TLE Epoch: 2/24/2024
Index Date Time (GOES-17) GOES-17 Lat,Lon AQUA Lat,Lon Distance(km) Time Diff (sec)
1 02/24/2024 20:56:43 -0.02,-104.66 0.29,-103.19 167.00 80
2 02/25/2024 09:17:04 0.02,-104.69 0.78,-108.11 389.81 80
3 02/27/2024 08:58:44 0.02,-104.69 -0.08,-104.29 46.10 80
4 02/29/2024 08:43:02 0.02,-104.69 -0.87,-100.45 482.29 80
5 02/29/2024 21:03:32 -0.02,-104.66 -0.19,-105.41 85.46 80
6 03/02/2024 20:50:30 -0.03,-104.66 0.65,-101.58 350.89 80
7 03/03/2024 09:10:49 0.03,-104.69 0.43,-106.49 205.65 80
8 03/05/2024 08:52:27 0.03,-104.68 -0.41,-102.66 230.54 80
9 03/05/2024 21:12:55 -0.03,-104.64 -0.67,-107.61 337.42 80
10 03/07/2024 20:59:51 -0.04,-104.63 0.17,-103.77 99.18 80
11 03/08/2024 09:20:11 0.04,-104.67 0.89,-108.69 457.11 80
